Regional Weather Roundup
Issued by NWS

Home | Current Version | Previous Version | Text Only | Print | Product List | Glossary On
Versions: 1 2 3 4 5 6 7 8 9 10 11 12 13 14 15 16 17 18 19 20 21 22 23 24 25 26 27 28 29 30 31 32 33 34 35 36 37 38 39 40 41 42 43 44 45 46 47 48 49 50
000
ASUS45 KPSR 070500
RWRAZ

ARIZONA HOURLY REGIONAL WEATHER ROUNDUP
NATIONAL WEATHER SERVICE PHOENIX AZ
1000 PM MST MON JUL 06 2015

NOTE: FAIR INDICATES FEW OR NO CLOUDS BELOW 12,000 FEET WITH NO
SIGNIFICANT WEATHER AND/OR OBSTRUCTIONS TO VISIBILITY.

AZZ001>003-036-070600-
NORTHWEST ARIZONA

CITY           SKY/WX    TMP DP  RH WIND       PRES   REMARKS
KINGMAN        MOCLDY    73  61  65 NE7       30.06R
$$

AZZ004>008-015-016-018-070600-
NORTH CENTRAL ARIZONA

CITY           SKY/WX    TMP DP  RH WIND       PRES   REMARKS
GRAND CANYON   PTCLDY    55  48  77 CALM      30.28R
WILLIAMS       CLEAR     57  52  82 S6        30.36R
PRESCOTT       PTCLDY    70  54  56 CALM      30.17R
FLAGSTAFF      NOT AVBL
PAYSON         MOCLDY    73  52  46 CALM      30.17S
PAGE           MOCLDY    72  58  61 CALM      30.10R
$$

AZZ009>014-017-070600-
NORTHEAST ARIZONA

CITY           SKY/WX    TMP DP  RH WIND       PRES   REMARKS
WINSLOW        NOT AVBL
SAINT JOHNS    MOCLDY    74  50  42 NW17G30   30.18R
WINDOW ROCK    MOCLDY    61  53  75 CALM      30.26R
SHOW LOW       MOCLDY    64  54  68 E5        30.26S
$$

AZZ023-070600-
GREATER PHOENIX AREA

CITY           SKY/WX    TMP DP  RH WIND       PRES   REMARKS
PHOENIX        MOCLDY    96  53  23 W7        29.84R
LUKE AFB       PTCLDY    93  63  36 SW13      29.84R
DEER VALLEY    MOCLDY    91  57  31 W6        29.86R
SCOTTSDALE     MOCLDY    94  55  26 CALM      29.87R
MESA-GATEWAY   PTCLDY    91  63  38 SW10      29.88R
$$

AZZ027-028-070600-
SOUTHWEST MARICOPA COUNTY AND PINAL COUNTY

CITY           SKY/WX    TMP DP  RH WIND       PRES   REMARKS
CASA GRANDE    CLEAR     88  63  42 S8        29.88R
GILA BEND      CLEAR     88  65  45 S12       29.84R
$$

AZZ503-504-507>509-070600-
SOUTHEAST ARIZONA

CITY           SKY/WX    TMP DP  RH WIND       PRES   REMARKS
TUCSON         CLEAR     84  63  49 S5        30.00R
DAVIS-MONTHAN  CLEAR     81  64  57 S7        29.99R
NOGALES        MOCLDY    72  66  81 E6        30.11R
SIERRA VISTA   MOCLDY    72  62  69 W8        30.16R
SAFFORD        MOCLDY    84  60  44 NW10      29.97R
$$

AZZ020-021-025-026-031-070600-
SOUTHWEST ARIZONA

CITY           SKY/WX    TMP DP  RH WIND       PRES   REMARKS
YUMA           NOT AVBL
$$

CAZ031-033-041-043-047-048-061-070600-
SOUTHERN CALIFORNIA

CITY           SKY/WX    TMP DP  RH WIND       PRES   REMARKS
DOWNTOWN L.A.  CLOUDY    65  59  81 CALM      30.00R
L.A. AIRPORT   CLOUDY    64  59  83 SW6       30.00R
SAN DIEGO      CLOUDY    68  58  70 NW5       30.02R
BURBANK        CLEAR     64  58  80 S5        30.00R
ONTARIO        CLEAR     66  58  75 W12       30.00R
RIVERSIDE        N/A    N/A N/A N/A MISG      30.00R
PALM SPRINGS   CLEAR     91  58  32 NW14      29.82R
EL CENTRO NAS  PTCLDY    92  47  21 S9        29.78R
IMPERIAL       CLEAR     95  45  17 S8        29.76R
BLYTHE         CLEAR     99  54  22 S15       29.78R
$$

NVZ020-UTZ003-070600-
SOUTHERN NEVADA-UTAH

CITY           SKY/WX    TMP DP  RH WIND       PRES   REMARKS
LAS VEGAS      NOT AVBL
SALT LAKE CITY PTCLDY    75  54  47 SE10      30.06R
$$

NMZ009-TXZ055-070600-
NEW MEXICO-WEST TEXAS

CITY           SKY/WX    TMP DP  RH WIND       PRES   REMARKS
ALBUQUERQUE    LGT RAIN  70  58  65 E26G37    30.17R
EL PASO        PTCLDY    90  53  28 W14G24    29.97R
$$


........................KEY........................
SKY/WX - SKY CONDITION/WEATHER
TMP    - TEMPERATURE IN FAHRENHEIT
DP     - DEW POINT IN FAHRENHEIT
RH     - RELATIVE HUMIDITY IN PERCENT
WIND   - DIRECTION AND SPEED IN MILES PER HOUR (MPH)
VRB    - VARIABLE WIND DIRECTION
PRES   - MEAN SEA LEVEL PRESSURE IN INCHES OF MERCURY
         F - FALLING PRESSURE   R - RISING PRESSURE
         S - STEADY PRESSURE
VSB    - VISIBILITY IN MILES
HX     - HEAT INDEX IN FAHRENHEIT
WCI    - WIND CHILL INDEX IN FAHRENHEIT
TC     - TEMPERATURE IN CELSIUS WHICH IS ALSO KNOWN AS
         TEMPERATURE IN CENTIGRADE
AFB    - AIR FORCE BASE
         LUKE AFB IS LUKE AIR FORCE BASE
         DAVIS-MONTHAN IS DAVIS-MONTHAN AIR FORCE BASE
NAS    - NAVAL AIR STATION
         EL CENTRO NAS IS EL CENTRO NAVAL AIR STATION
N/A    - NOT AVAILABLE



USA.gov is the U.S. government's official web portal to all federal, state and local government web resources and services.